Vendredi 19 octobre 2018   -   semaine 42                    on fête: René                    soleil  (-4 mn) lever du soleil 08:08:00 coucher du soleil 18:54:00                    lune Lune gibbeuse croissante
Sélection

Sélection d'un SYNOP

   Synop:       

  Période à consulter:

Actuelle
Archive     

Relevé

Dernier relevé du SYNOP pour la période choisie

Conditions météo à la station de Vichy/Charmeil (4610N 00324E)    altitude 251m

Date du relevé18/10/2018 à 23:00
Visibilité20km
Vent0 km/h N
Température8.5 C
Température mini / 12h0.0 C
Humidité90.3 %
Point de rosée7.0 C
Pression absolue988.5 hPa
Pression relative1018.8 hPa
Variation pression1.1 hPa en hausse puis stationnaire ou en hausse, puis en hausse plus lente

24h

Historique de la période choisie

Certaines stations ne diffusent pas en continu, d'où l'absence possible de données à certaines heures. Le tableau ci-dessous récapitule l'historique des relevés de la station de Vichy/Charmeil.

Date - Heure Base des nuages Visibilité Nébulosité Vent - Secteur Température Humidité Point rosée Pression / Géopotentiel Précipitations Temps
18/10 23:00 20km 0 km/h N 8.5 C 90.3 % 7.0 C 1018.8 hPa
18/10 22:00 20km 0 km/h N 9.8 C 86.8 % 7.7 C 1018.5 hPa
18/10 21:00 20km 0 km/h N 11.1 C 81.8 % 8.1 C 1017.8 hPa
18/10 20:00 20km 0 km/h N 13.3 C 73.2 % 8.6 C 1017.2 hPa 0 mm/12h
18/10 19:00 20km 2 km/h NE 18.5 C 49.1 % 7.6 C 1015.9 hPa
18/10 18:00 18km 2 km/h N 22.5 C 40.0 % 8.2 C 1014.9 hPa
18/10 17:00 19km 7 km/h NNE 22.8 C 40.0 % 8.5 C 1015.0 hPa
18/10 16:00 19km 7 km/h NNE 22.6 C 41.1 % 8.7 C 1015.2 hPa
18/10 15:00 19km 6 km/h N 21.5 C 45.1 % 9.1 C 1015.9 hPa
18/10 14:00 18km 9 km/h NNE 20.0 C 49.2 % 9.0 C 1016.5 hPa 0 mm/6h
18/10 13:00 19km 6 km/h N 18.4 C 58.8 % 10.2 C 1017.1 hPa
18/10 12:00 16km 4 km/h N 16.3 C 65.9 % 9.9 C 1018.0 hPa
18/10 11:00 17km 2 km/h S 14.4 C 71.0 % 9.2 C 1018.4 hPa
18/10 10:00 15km 0 km/h N 9.3 C 92.8 % 8.2 C 1019.0 hPa
18/10 09:00 7km 2 km/h SO 6.2 C 97.9 % 5.9 C 1019.0 hPa
18/10 08:00 6km 2 km/h S 4.7 C 97.9 % 4.4 C 1018.8 hPa 0 mm/12h
18/10 07:00 6km 0 km/h N 4.6 C 97.2 % 4.2 C 1018.4 hPa
18/10 06:00 7km 0 km/h N 5.0 C 97.2 % 4.6 C 1018.2 hPa
18/10 05:00 9km 0 km/h N 5.5 C 97.3 % 5.1 C 1018.2 hPa
18/10 04:00 8km 2 km/h O 6.4 C 95.9 % 5.8 C 1018.1 hPa
18/10 03:00 10km 0 km/h N 6.6 C 95.9 % 6.0 C 1018.1 hPa
18/10 02:00 12km 0 km/h N 7.1 C 94.0 % 6.2 C 1018.3 hPa 0 mm/6h
18/10 01:00 13km 0 km/h N 7.8 C 92.8 % 6.7 C 1018.0 hPa
18/10 00:00 17km 0 km/h N 8.8 C 89.7 % 7.2 C 1018.1 hPa

Source: ogimet